FW2015 Weather Reports


Display with metric or nautical units.
time (UTC)temp
F
wind
direction
speed
MPH
gust
MPH
rain 1hr
in
rain 24hr
in
rain mn
in
humidity
%
barometer
mb
20260504081519 52 266 10.0 15.0 0.00 0.00 0.00 75 1014.6
20260504044554 52 250 7.0 12.0 0.00 0.00 0.00 68 1013.7
20260504043050 52 229 7.0 14.0 0.00 0.00 0.00 63 1013.6
20260504041546 52 235 9.0 16.0 0.00 0.00 0.00 60 1013.5
20260504040046 52 256 8.0 16.0 0.00 0.00 0.00 61 1013.4
20260504034542 52 264 9.0 15.0 0.00 0.00 0.00 62 1013.2
20260504033049 53 261 7.0 13.0 0.00 0.00 0.00 63 1013.1
20260504031538 53 264 8.0 14.0 0.00 0.00 0.00 60 1013.2
20260504030038 53 257 9.0 15.0 0.00 0.00 0.00 57 1013.1
20260504024552 53 260 7.0 12.0 0.00 0.00 0.00 60 1013.1
20260504023036 53 243 8.0 11.0 0.00 0.00 0.00 60 1013.1
20260504021545 54 236 8.0 13.0 0.00 0.00 0.00 56 1013.1
20260504020036 54 265 7.0 12.0 0.00 0.00 0.00 58 1013.1
20260504014535 55 264 8.0 13.0 0.00 0.00 0.00 58 1013.0
20260504013038 55 274 8.0 12.0 0.00 0.00 0.00 55 1013.0
20260504011532 55 221 8.0 12.0 0.00 0.00 0.00 54 1012.7
20260504010030 55 264 6.0 10.0 0.00 0.00 0.00 57 1012.3
20260504004540 56 238 5.0 9.0 0.00 0.00 0.00 55 1012.3
20260504003028 55 262 4.0 9.0 0.00 0.00 0.00 53 1012.1
20260504001528 56 264 6.0 10.0 0.00 0.00 0.00 50 1012.0
20260504000027 56 248 5.0 9.0 0.00 0.00 0.00 53 1011.7
20260503234529 57 266 4.0 12.0 0.00 0.00 0.00 46 1011.6
20260503233030 58 273 3.0 11.0 0.00 0.00 0.00 44 1011.5
20260503231526 58 349 7.0 16.0 0.00 0.00 0.00 46 1011.4
20260503230026 58 295 10.0 19.0 0.00 0.00 0.00 40 1011.4
20260503224524 58 294 12.0 22.0 0.00 0.00 0.00 43 1011.3
20260503223023 58 295 15.0 22.0 0.00 0.00 0.00 42 1011.2
20260503221522 58 280 14.0 22.0 0.00 0.00 0.00 44 1011.1
20260503220020 58 311 18.0 25.0 0.00 0.00 0.00 40 1011.0
20260503214519 58 324 15.0 26.0 0.00 0.00 0.00 39 1011.0
20260503213019 58 286 17.0 27.0 0.00 0.00 0.00 45 1010.8
20260503211520 57 296 15.0 27.0 0.00 0.00 0.00 42 1010.9
20260503210016 57 322 11.0 19.0 0.00 0.00 0.00 45 1010.8
20260503204514 57 287 18.0 26.0 0.00 0.00 0.00 42 1010.8
20260503203014 56 297 17.0 25.0 0.00 0.00 0.00 38 1010.6
20260503201510 56 291 15.0 24.0 0.00 0.00 0.00 41 1010.7
20260503200010 56 314 13.0 32.0 0.00 0.00 0.00 44 1010.8
20260503194507 56 328 17.0 27.0 0.00 0.00 0.00 43 1011.1
20260503193018 55 317 18.0 24.0 0.00 0.00 0.00 47 1011.2
20260503191502 55 321 15.0 29.0 0.00 0.00 0.00 45 1011.2
20260503184608 54 317 13.0 24.0 0.00 0.00 0.00 47 1011.5
20260503183059 54 294 18.0 26.0 0.00 0.00 0.00 48 1011.5
20260503181559 54 297 11.0 24.0 0.00 0.00 0.00 49 1011.7
20260503180054 53 285 16.0 25.0 0.00 0.00 0.00 47 1011.6
20260503174606 53 310 18.0 25.0 0.00 0.00 0.00 48 1011.6
20260503173055 53 316 15.0 25.0 0.00 0.00 0.00 46 1011.7
20260503171549 52 316 18.0 25.0 0.00 0.00 0.00 48 1011.8